Bishops Head, MD NWLON current weather conditions

sailwx.info

Wind from 318 at 19 knots gusting 25

Air temperature -5.0° C
Water temperature -0.6° C

Last reported at 2016-Feb-13 18:36 UTC.
Time now 2016-Feb-13 19:29 UTC

Location: N 38°13' W 076°02'.
View on Google Maps.

See reports from other nearby stations

  
Tides and Currents Weather Stations Pressure Air Temp Water Temp Dewpoint Dewpoint Depression Visibility Wind Speed Wind Dir Waves Ship Positions
date/time (UTC)wind fromknots sea level pressurealtimeterstation pressurevisibilityair tempwater tempwave heightnotes
2016-Feb-13 18:36 318 19 gusting 25 -5.0-0.6
2016-Feb-13 18:30 302 17 gusting 26 -5.0-0.6
2016-Feb-13 18:24 306 17 gusting 23 -5.0-0.6
2016-Feb-13 18:18 321 18 gusting 24 -5.0-0.6
2016-Feb-13 18:12 304 20 gusting 26 -5.0-0.6
2016-Feb-13 18:06 312 19 gusting 25 -5.0-0.6
2016-Feb-13 18:00 314 21 gusting 26 -5.6-0.6
2016-Feb-13 17:54 302 23 gusting 26 -5.0-0.6
2016-Feb-13 17:48 300 21 gusting 26 -5.0-0.6
2016-Feb-13 17:36 304 19 gusting 27 -5.0-0.6
2016-Feb-13 17:24 304 25 gusting 31 -5.0-1.1
2016-Feb-13 17:18 309 23 gusting 27 -5.0-1.1
2016-Feb-13 17:12 298 20 gusting 24 -5.0-1.1
2016-Feb-13 17:06 316 19 gusting 28 -5.6-1.1
2016-Feb-13 17:00 305 19 gusting 29 -5.0-1.1
2016-Feb-13 16:54 303 23 gusting 29 -5.0-1.1
2016-Feb-13 16:36 305 24 gusting 31 -5.0-1.1
2016-Feb-13 16:30 314 25 gusting 29 -5.0-1.1
2016-Feb-13 16:24 292 24 gusting 28 -5.0-1.1
2016-Feb-13 16:18 302 23 gusting 30 -5.0-1.1
2016-Feb-13 16:06 297 24 gusting 31 -5.0-1.1
2016-Feb-13 16:00 299 24 gusting 29 -5.0-1.1
2016-Feb-13 15:48 302 26 gusting 29 -5.0-1.1
2016-Feb-13 15:36 305 24 gusting 27 -5.6-1.1
2016-Feb-13 15:30 306 23 gusting 30 -5.0-1.1
2016-Feb-13 15:24 308 22 gusting 27 -5.0-1.1
2016-Feb-13 15:06 301 24 gusting 27 -5.6-1.1
2016-Feb-13 14:54 308 15 gusting 24 -5.0-1.1
2016-Feb-13 14:42 316 22 gusting 33 -5.6-1.1
2016-Feb-13 14:30 294 24 gusting 28 -5.6-1.1
2016-Feb-13 14:24 292 25 gusting 32 -5.6-1.1
2016-Feb-13 14:18 294 23 gusting 30 -5.6-1.1
2016-Feb-13 14:12 298 24 gusting 29 -5.6-1.1
2016-Feb-13 14:06 293 25 gusting 29 -5.6-1.1
2016-Feb-13 13:54 295 20 gusting 27 -4.4-1.1
2016-Feb-13 13:48 288 22 gusting 27 -5.0-1.1
2016-Feb-13 13:30 314 20 gusting 27 -4.4-1.1
2016-Feb-13 13:24 310 22 gusting 27 -4.4-1.1
2016-Feb-13 13:18 307 22 gusting 27 -4.4-1.1
2016-Feb-13 13:12 306 20 gusting 23 -4.4-1.1
2016-Feb-13 13:06 305 19 gusting 26 -5.0-1.1
2016-Feb-13 12:54 305 26 gusting 33 -5.0-1.1
2016-Feb-13 12:48 328 24 gusting 32 -4.4-1.1
2016-Feb-13 12:36 311 26 gusting 29 -4.4-1.1
2016-Feb-13 12:30 314 22 gusting 29 -4.4-1.1
2016-Feb-13 12:18 312 20 gusting 25 -3.9-1.1
2016-Feb-13 12:12 323 15 gusting 26 -4.4-1.1
2016-Feb-13 12:06 312 23 gusting 28 -3.9-1.1
2016-Feb-13 12:00 306 24 gusting 31 -3.9-1.1
2016-Feb-13 11:54 309 23 gusting 30 -3.9-1.1
2016-Feb-13 11:48 308 24 gusting 27 -3.9-1.1
2016-Feb-13 11:36 306 26 gusting 32 -3.9-1.1
2016-Feb-13 11:30 302 25 gusting 31 -3.3-1.1
2016-Feb-13 11:24 301 25 gusting 32 -3.3-1.1
2016-Feb-13 11:18 309 26 gusting 33 -3.3-1.1
2016-Feb-13 11:12 306 26 gusting 31 -3.3-1.1
2016-Feb-13 11:06 315 26 gusting 33 -3.9-1.1
2016-Feb-13 11:00 304 28 gusting 33 -3.3-1.1
2016-Feb-13 10:54 304 27 gusting 33 -2.8-1.1
2016-Feb-13 10:48 301 26 gusting 33 -2.8-1.1
2016-Feb-13 10:36 301 26 gusting 31 -2.2-1.1
2016-Feb-13 10:24 307 23 gusting 31 -2.2-0.6
2016-Feb-13 10:18 303 24 gusting 28 -2.2-0.6
2016-Feb-13 10:12 303 22 gusting 31 -2.2-0.6
2016-Feb-13 10:06 300 24 gusting 30 -2.2-0.6
2016-Feb-13 10:00 300 26 gusting 28 -2.2-0.6
2016-Feb-13 09:54 300 22 gusting 30 -2.2-0.6
2016-Feb-13 09:48 299 24 gusting 29 -2.2-0.6
2016-Feb-13 09:36 301 22 gusting 27 -2.2-0.0
2016-Feb-13 09:30 300 20 gusting 26 -1.7-0.0
2016-Feb-13 09:24 298 19 gusting 26 -1.7-0.0
2016-Feb-13 09:12 308 19 gusting 24 -2.2-0.0
2016-Feb-13 09:06 306 19 gusting 24 -1.7-0.0
2016-Feb-13 09:00 312 18 gusting 24 -2.2-0.0
2016-Feb-13 08:54 318 13 gusting 20 -2.2-0.0
2016-Feb-13 08:48 311 18 gusting 23 -1.7-0.0
2016-Feb-13 08:36 318 13 gusting 17 -2.2-0.0
2016-Feb-13 08:30 320 13 gusting 17 -2.2-0.0
2016-Feb-13 08:24 312 13 gusting 16 -2.2-0.0
2016-Feb-13 08:18 314 11 gusting 14 -2.2-0.0
2016-Feb-13 08:12 318 9 gusting 15 -2.2-0.0
2016-Feb-13 08:06 321 10 gusting 19 -2.2-0.0
2016-Feb-13 08:00 309 15 gusting 19 -2.2-0.0
2016-Feb-13 07:54 318 11 gusting 19 -2.2 0.6
2016-Feb-13 07:36 322 7 gusting 10 -2.2 0.6
2016-Feb-13 07:30 321 7 gusting 13 -2.2 0.6
2016-Feb-13 07:24 319 9 gusting 11 -2.2 0.6
2016-Feb-13 07:18 323 6 gusting 11 -2.8 0.6
2016-Feb-13 07:12 323 6 gusting 12 -2.8 0.6
2016-Feb-13 07:06 321 7 gusting 11 -2.2 0.6
2016-Feb-13 07:00 313 8 gusting 10 -2.2-0.0
2016-Feb-13 06:48 313 10 gusting 12 -2.2-0.0
2016-Feb-13 06:36 309 9 gusting 13 -1.7-0.0
2016-Feb-13 06:30 310 11 gusting 15 -1.7-0.0
2016-Feb-13 06:24 314 12 gusting 16 -1.7 0.6
2016-Feb-13 06:12 312 14 gusting 17 -1.7 0.6
2016-Feb-13 06:06 308 13 gusting 18 -1.7 0.6
2016-Feb-13 05:24 300 15 gusting 17 -1.1 0.6
2016-Feb-13 05:18 298 14 gusting 18 -1.1 0.6
2016-Feb-13 05:12 296 14 gusting 16 -1.7 0.6
2016-Feb-13 03:54 280 9 gusting 13 -1.7 1.1
2016-Feb-13 03:48 286 10 gusting 13 -1.7 1.1
2016-Feb-13 03:36 278 9 gusting 11 -1.7 1.1
2016-Feb-13 03:30 273 10 gusting 13 -1.7 1.1
2016-Feb-13 03:24 267 9 gusting 11 -1.7 1.1
2016-Feb-13 03:18 271 9 gusting 11 -1.7 1.1
2016-Feb-13 03:06 263 8 gusting 11 -1.7 1.1
2016-Feb-13 03:00 262 9 gusting 11 -2.2 1.1
2016-Feb-13 02:54 246 7 gusting 10 -2.2 1.1
2016-Feb-13 02:48 273 8 gusting 11 -2.2 1.1
2016-Feb-13 02:36 270 7 gusting 11 -2.2 1.1
2016-Feb-13 02:30 262 8 gusting 9 -2.2 1.1
2016-Feb-13 02:18 263 6 gusting 9 -2.2 1.7
2016-Feb-13 02:12 255 8 gusting 10 -1.7 1.7
2016-Feb-13 02:06 261 6 gusting 9 -2.2 1.7
2016-Feb-13 02:00 261 7 gusting 8 -1.7 1.7
2016-Feb-13 01:54 266 7 gusting 10 -2.2 1.7
2016-Feb-13 01:48 267 6 gusting 9 -1.7 1.7
2016-Feb-13 01:36 250 5 gusting 7 -2.2 1.7
2016-Feb-13 01:24 195 3 gusting 6 -2.2 1.7
2016-Feb-13 01:18 186 3 gusting 5 -2.8 1.7
2016-Feb-13 01:12 181 3 gusting 5 -2.8 1.7
2016-Feb-13 01:06 180 3 gusting 4 -2.8 1.7
2016-Feb-13 01:00 183 3 gusting 5 -2.8 1.7
2016-Feb-13 00:48 179 5 gusting 6 -2.8 1.7
2016-Feb-13 00:36 162 6 gusting 6 -2.8 1.7
2016-Feb-13 00:30 158 5 gusting 5 -2.8 1.7
2016-Feb-13 00:24 157 3 gusting 5 -3.3 1.7
2016-Feb-13 00:18 156 3 gusting 6 -3.3 1.7
2016-Feb-13 00:12 155 6 gusting 7 -2.8 1.7
2016-Feb-13 00:06 161 6 gusting 7 -3.3 1.7
2016-Feb-13 00:00 166 5 gusting 6 -2.8 1.7
2016-Feb-12 23:48 160 5 gusting 6 -3.3 1.7
2016-Feb-12 23:36 168 4 gusting 6 -3.3 1.7
2016-Feb-12 23:24 185 6 gusting 8 -3.3 1.7
2016-Feb-12 23:18 189 6 gusting 9 -3.3 1.7
2016-Feb-12 23:12 197 7 gusting 9 -2.8 1.7
2016-Feb-12 23:06 185 8 gusting 11 -2.8 1.7
2016-Feb-12 23:00 183 9 gusting 10 -2.8 1.7
2016-Feb-12 22:54 195 8 gusting 10 -2.8 1.7
2016-Feb-12 22:48 182 9 gusting 11 -2.8 1.7
2016-Feb-12 22:36 182 6 gusting 9 -2.8 1.7
2016-Feb-12 22:30 176 6 gusting 7 -2.8 1.7
2016-Feb-12 22:24 183 6 gusting 7 -2.8 1.7
2016-Feb-12 22:18 175 6 gusting 9 -2.8 1.7
2016-Feb-12 22:12 168 5 gusting 7 -2.8 1.7
2016-Feb-12 22:00 165 5 gusting 7 -2.8 1.7
2016-Feb-12 21:54 184 5 gusting 8 -3.3 1.7
2016-Feb-12 21:48 193 7 gusting 8 -3.3 1.7
2016-Feb-12 21:36 190 7 gusting 11 -3.3 1.7
2016-Feb-12 21:30 169 7 gusting 10 -2.8 1.7
2016-Feb-12 20:30 150 9 gusting 13 -3.3 1.1
2016-Feb-12 20:18 156 6 gusting 9 -3.3 1.1
2016-Feb-12 20:12 156 6 gusting 9 -3.3 1.1
2016-Feb-12 20:06 147 7 gusting 9 -3.3 1.1
2016-Feb-12 20:00 175 4 gusting 9 -3.3 1.1
2016-Feb-12 19:54 150 6 gusting 8 -3.3 1.1
2016-Feb-12 19:48 142 4 gusting 7 -3.3 1.1
2016-Feb-12 19:36 140 7 gusting 8 -3.3 1.1
2016-Feb-12 19:30 136 6 gusting 8 -3.9 1.1
2016-Feb-12 19:24 137 5 gusting 8 -3.9 1.1
2016-Feb-12 19:18 139 6 gusting 8 -3.9 1.1
2016-Feb-12 19:12 137 6 gusting 7 -3.9 1.1
2016-Feb-12 19:06 132 5 gusting 7 -3.9 1.1
2016-Feb-12 19:00 150 6 gusting 7 -3.9 1.1
2016-Feb-12 18:54 153 6 gusting 7 -3.9 1.1
2016-Feb-12 18:48 136 4 gusting 6 -3.9 1.1
2016-Feb-12 18:36 147 3 gusting 6 -3.9 1.1
2016-Feb-12 18:30 133 6 gusting 6 -3.9 1.1
2016-Feb-12 18:24 152 5 gusting 6 -3.9 1.1
2016-Feb-12 18:18 152 4 gusting 6 -3.9 1.1
2016-Feb-12 18:12 136 5 gusting 7 -3.9 1.7
2016-Feb-12 18:06 146 4 gusting 8 -4.4 1.7
2016-Feb-12 18:00 177 7 gusting 10 -3.9 1.7
2016-Feb-12 17:54 191 2 gusting 4 -3.9 1.7
2016-Feb-12 17:48 262 1 gusting 4 -3.9 1.7
2016-Feb-12 17:36 237 2 gusting 3 -3.9 1.1
2016-Feb-12 17:30 229 2 gusting 4 -3.9 1.1
2016-Feb-12 17:24 244 2 gusting 4 -3.9 1.1
2016-Feb-12 17:18 230 3 gusting 4 -3.9 0.6
2016-Feb-12 17:12 251 2 gusting 5 -3.9 0.6
2016-Feb-12 17:06 257 3 gusting 5 -4.4-0.0
2016-Feb-12 17:00 261 4 gusting 6 -4.4-0.0
2016-Feb-12 16:54 260 3 gusting 5 -4.4-0.6
2016-Feb-12 16:48 249 4 gusting 5 -4.4-0.6
2016-Feb-12 16:36 241 4 gusting 6 -4.4-0.6
2016-Feb-12 16:30 254 5 gusting 6 -4.4-0.6
2016-Feb-12 16:24 236 6 gusting 6 -4.4-0.6
2016-Feb-12 16:18 248 5 gusting 6 -4.4-0.6
2016-Feb-12 16:12 244 4 gusting 5 -4.4-0.6
2016-Feb-12 15:54 243 3 gusting 6 -4.4-0.6
2016-Feb-12 15:48 261 3 gusting 5 -4.4-0.6
2016-Feb-12 15:36 230 4 gusting 6 -4.4-0.6
2016-Feb-12 15:30 236 3 gusting 3 -4.4-0.6
2016-Feb-12 15:24 287 0 gusting 5 -4.4-0.6
2016-Feb-12 15:18 248 3 gusting 4 -4.4-0.6
2016-Feb-12 15:12 294 3 gusting 5 -5.0-0.6
2016-Feb-12 15:06 289 3 gusting 5 -5.0-0.6
2016-Feb-12 14:54 259 3 gusting 4 -4.4-0.6
2016-Feb-12 14:48 286 2 gusting 3 -4.4-0.6
2016-Feb-12 14:36 262 2 gusting 4 -5.0-0.6
2016-Feb-12 14:30 241 0 gusting 4 -4.4-0.6
2016-Feb-12 14:24 270 2 gusting 3 -4.4-0.6
2016-Feb-12 14:18 268 2 gusting 3 -5.0-0.6
2016-Feb-12 14:12 284 3 gusting 4 -5.0-0.6
2016-Feb-12 14:06 300 2 gusting 3 -4.4-0.6
2016-Feb-12 13:54 228 -3.9-0.6
2016-Feb-12 13:48 311 1 gusting 3 -5.0-0.6
2016-Feb-12 13:36 216 0 gusting 4 -4.4-0.6
2016-Feb-12 13:30 024 2 gusting 3 -3.9-0.6
2016-Feb-12 13:24 351 2 gusting 4 -4.4-0.6
2016-Feb-12 13:18 326 2 gusting 4 -5.0-0.6
2016-Feb-12 13:12 309 2 gusting 5 -5.0-0.6
2016-Feb-12 13:06 316 3 gusting 4 -5.0-0.6
2016-Feb-12 12:54 323 2 gusting 2 -5.0-0.6
2016-Feb-12 12:48 324 1 gusting 3 -5.0-0.6
2016-Feb-12 12:36 344 1 gusting 2 -5.6-0.6
2016-Feb-12 12:24 331 2 gusting 3 -6.1-0.6
2016-Feb-12 12:18 338 2 gusting 3 -6.1-0.6
2016-Feb-12 12:12 330 1 gusting 2 -6.1-0.6
2016-Feb-12 12:06 344 1 gusting 3 -6.1-0.6
2016-Feb-12 12:00 341 2 gusting 3 -6.1-0.6
2016-Feb-12 11:54 342 1 gusting 2 -6.1-0.6
2016-Feb-12 11:48 334 1 gusting 2 -6.1-0.6
2016-Feb-12 11:42 329 1 gusting 1 -6.1-0.6
2016-Feb-12 11:30 338 1 gusting 3 -6.1-0.6
2016-Feb-12 11:24 322 3 gusting 3 -6.1-0.6
2016-Feb-12 11:12 320 3 gusting 3 -6.7-0.6
2016-Feb-12 11:06 329 2 gusting 3 -6.7-0.6
2016-Feb-12 11:00 333 3 gusting 4 -6.7-0.6
2016-Feb-12 10:54 330 4 gusting 5 -6.7-0.6
2016-Feb-12 10:48 333 3 gusting 3 -6.7-0.6
2016-Feb-12 10:36 323 3 gusting 6 -6.1-0.6
2016-Feb-12 10:30 319 4 gusting 4 -6.1-0.6
2016-Feb-12 10:18 331 3 gusting 5 -6.7-0.6
2016-Feb-12 10:12 327 3 gusting 4 -6.7-0.6
2016-Feb-12 10:06 329 3 gusting 3 -6.1-0.6
2016-Feb-12 10:00 328 3 gusting 4 -6.7-0.6
2016-Feb-12 09:54 334 2 gusting 4 -6.7-0.6
2016-Feb-12 09:36 324 5 gusting 6 -6.1-0.6
2016-Feb-12 09:30 329 4 gusting 6 -6.1-0.6
2016-Feb-12 09:24 330 4 gusting 6 -6.1-0.6
2016-Feb-12 09:18 332 5 gusting 7 -6.1-0.6
2016-Feb-12 09:12 327 6 gusting 8 -6.1-0.6
2016-Feb-12 09:00 331 4 gusting 6 -6.1-0.6
2016-Feb-12 08:54 335 4 gusting 6 -6.1-0.6
2016-Feb-12 08:48 322 4 gusting 6 -6.1-0.6
2016-Feb-12 08:36 319 6 gusting 7 -6.1-0.6
2016-Feb-12 08:30 329 6 gusting 9 -6.1-0.6
2016-Feb-12 08:24 333 6 gusting 8 -6.1-0.6
2016-Feb-12 08:18 326 6 gusting 8 -6.1-0.6
2016-Feb-12 08:12 327 6 gusting 9 -5.6-0.6
2016-Feb-12 08:06 327 7 gusting 10 -5.6-0.6
2016-Feb-12 07:54 331 8 gusting 10 -5.6-0.6
2016-Feb-12 07:48 329 9 gusting 13 -5.6-0.6
2016-Feb-12 07:36 330 9 gusting 13 -5.6-0.6
2016-Feb-12 07:30 332 10 gusting 13 -5.6-0.6
2016-Feb-12 07:24 329 7 gusting 12 -5.6-0.6
2016-Feb-12 07:12 329 7 gusting 13 -5.6-0.6
2016-Feb-12 07:06 327 9 gusting 14 -5.6-0.6
2016-Feb-12 07:00 326 9 gusting 11 -5.6-0.6
2016-Feb-12 06:54 322 9 gusting 13 -5.6-0.6
2016-Feb-12 06:48 319 8 gusting 12 -5.6-0.6
2016-Feb-12 06:36 327 10 gusting 13 -5.6-0.6
2016-Feb-12 06:30 329 10 gusting 13 -5.6-0.6
2016-Feb-12 06:24 334 11 gusting 13 -5.6-0.6
2016-Feb-12 06:18 330 11 gusting 16 -5.6-0.6
2016-Feb-12 06:12 325 13 gusting 19 -5.6-0.6
2016-Feb-12 06:06 323 12 gusting 18 -5.6-0.6
2016-Feb-12 06:00 323 14 gusting 17 -5.6-1.1
2016-Feb-12 05:54 327 12 gusting 14 -5.0-1.1
2016-Feb-12 05:48 325 11 gusting 13 -5.0-1.1
2016-Feb-12 05:36 322 14 gusting 16 -5.0-1.1
2016-Feb-12 05:30 326 13 gusting 18 -5.0-0.6
2016-Feb-12 05:18 329 12 gusting 18 -5.0-0.6
2016-Feb-12 05:12 329 12 gusting 18 -5.0-0.0
2016-Feb-12 05:06 328 13 gusting 17 -5.0-0.0
2016-Feb-12 05:00 330 13 gusting 19 -5.0-0.0
2016-Feb-12 04:54 326 15 gusting 18 -5.0-0.0
2016-Feb-12 04:48 326 13 gusting 15 -5.0-0.0
2016-Feb-12 04:42 321 11 gusting 19 -5.0-0.0
2016-Feb-12 04:30 320 13 gusting 19 -4.4 0.6
2016-Feb-12 04:24 325 12 gusting 19 -5.0 0.6
2016-Feb-12 04:18 311 16 gusting 20 -4.4 0.6
2016-Feb-12 04:12 318 13 gusting 18 -4.4 0.6
2016-Feb-12 04:06 324 14 gusting 19 -4.4 0.6
2016-Feb-12 04:00 323 15 gusting 20 -4.4 0.6
2016-Feb-12 03:54 328 13 gusting 15 -4.4 0.6
2016-Feb-12 03:48 328 11 gusting 22 -4.4 0.6
2016-Feb-12 03:36 314 14 gusting 24 -4.4 0.6
2016-Feb-12 03:24 327 17 gusting 23 -4.4 0.6
2016-Feb-12 03:18 315 20 gusting 25 -3.9 0.6
2016-Feb-12 03:12 317 16 gusting 21 -4.4 0.6
2016-Feb-12 03:06 323 13 gusting 17 -4.4 0.6
2016-Feb-12 03:00 322 13 gusting 16 -4.4 0.6
2016-Feb-12 02:54 326 13 gusting 19 -4.4 0.6
2016-Feb-12 02:48 327 16 gusting 20 -4.4 0.6
2016-Feb-12 02:36 329 13 gusting 21 -4.4 0.6
2016-Feb-12 02:30 321 17 gusting 23 -3.9 0.6
2016-Feb-12 02:18 326 14 gusting 19 -3.9 1.1
2016-Feb-12 02:12 325 13 gusting 24 -3.9 1.1
2016-Feb-12 02:06 325 13 gusting 18 -3.9 1.1
2016-Feb-12 02:00 325 14 gusting 20 -3.9 1.1
2016-Feb-12 01:54 327 14 gusting 20 -3.9 1.1
2016-Feb-12 01:48 317 13 gusting 21 -3.9 1.1
2016-Feb-12 01:36 318 16 gusting 21 -3.3 1.1
2016-Feb-12 01:24 320 15 gusting 18 -3.3 1.1
2016-Feb-12 01:18 326 12 gusting 16 -3.3 1.1
2016-Feb-12 01:12 325 12 gusting 13 -3.3 1.1
2016-Feb-12 01:06 332 10 gusting 18 -3.9 1.1
2016-Feb-12 01:00 327 13 gusting 16 -3.3 1.1
2016-Feb-12 00:48 327 14 gusting 18 -3.3 1.1
2016-Feb-12 00:36 324 13 gusting 16 -3.3 1.1
2016-Feb-12 00:30 325 12 gusting 19 -3.3 1.1
2016-Feb-12 00:24 324 12 gusting 18 -3.3 1.1
2016-Feb-12 00:18 334 12 gusting 16 -3.3 1.1
2016-Feb-12 00:12 331 12 gusting 15 -3.3 1.1
2016-Feb-12 00:06 333 11 gusting 16 -3.3 1.1
2016-Feb-12 00:00 330 13 gusting 15 -3.3 1.1
2016-Feb-11 23:48 326 11 gusting 14 -2.8 1.1
2016-Feb-11 23:42 318 11 gusting 14 -2.8 1.1
2016-Feb-11 23:36 325 9 gusting 13 -3.3 1.1
2016-Feb-11 23:24 327 13 gusting 18 -2.8 1.1
2016-Feb-11 23:18 329 12 gusting 16 -2.2 1.1
2016-Feb-11 23:12 320 13 gusting 19 -2.2 1.1
2016-Feb-11 23:06 322 13 gusting 17 -2.2 1.1
2016-Feb-11 23:00 315 14 gusting 18 -2.2 1.7
2016-Feb-11 22:48 318 13 gusting 19 -2.2 1.7
2016-Feb-11 22:36 315 15 gusting 20 -1.7 1.7
2016-Feb-11 22:30 317 15 gusting 19 -2.2 1.1
2016-Feb-11 22:24 313 16 gusting 20 -1.7 1.7
2016-Feb-11 22:12 305 18 gusting 22 -1.7 1.7
2016-Feb-11 22:06 315 17 gusting 21 -1.7 1.7
2016-Feb-11 22:00 315 14 gusting 19 -1.7 1.7
2016-Feb-11 21:54 312 16 gusting 20 -1.7 1.7
2016-Feb-11 21:48 316 14 gusting 22 -1.1 1.7
2016-Feb-11 21:36 307 15 gusting 20 -1.1 1.7
2016-Feb-11 20:54 291 21 gusting 26 -1.1 1.7
2016-Feb-11 20:48 298 19 gusting 25 -1.1 1.7
2016-Feb-11 20:36 300 20 gusting 26 -1.1 1.7
2016-Feb-11 20:30 298 18 gusting 22 -1.1 1.7
2016-Feb-11 20:24 299 19 gusting 24 -1.1 1.7
2016-Feb-11 20:18 297 19 gusting 26 -1.1 1.7
2016-Feb-11 20:12 301 22 gusting 26 -1.7 1.7
2016-Feb-11 20:06 301 21 gusting 26 -1.7 1.1
2016-Feb-11 20:00 293 20 gusting 26 -1.7 1.1
2016-Feb-11 19:54 300 19 gusting 25 -1.7 1.1
2016-Feb-11 19:48 295 17 gusting 22 -1.7 1.1
2016-Feb-11 19:42 301 18 gusting 22 -2.2 1.1
2016-Feb-11 19:36 296 17 gusting 21 -2.2 1.1
2016-Feb-11 19:24 290 18 gusting 25 -2.2 1.1
2016-Feb-11 19:18 304 18 gusting 22 -2.2 1.1
2016-Feb-11 19:12 297 20 gusting 25 -2.2 1.1
2016-Feb-11 19:06 287 21 gusting 26 -2.2 1.1
2016-Feb-11 19:00 291 19 gusting 24 -2.2 1.1